User: anonymous   Login
Location: Unspecified
(39.4088°N, 0.0000°E)
Time: 07:34:12
(UTC+00:00)
Language:

SL-24 PLAT - Orbit

View from above orbital plane
View from above orbital plane
View from above satellite
View from above satellite

Ground track
Ground track

The orbit is defined by the following mean orbital elements,

1 40049U          26087.97654867 +.00000000 +00000-0 +47831-3 0 00001
2 40049  98.0989  82.0264 0007158 147.5733 212.5935 15.09457873    01
Epoch (UTC): 28 March 2026 23:26:13
Eccentricity: 0.0007158
inclination: 98.0989°
perigee height: 533 km
apogee height: 543 km
right ascension of ascending node: 82.0264°
argument of perigee: 147.5733°
revolutions per day: 15.09457873
mean anomaly at epoch: 212.5935°

The dashed part of the orbit path shows where the satellite is in the earth's shadow,  

DLR